Tracking 28790 objects as of 19-Apr-2024
HD Live streaming from Space Station
objects crossing your sky now

FENGYUN 1C DEB

Track FENGYUN 1C DEB now!
10-day predictions


NORAD ID: 33710
Int'l Code: 1999-025DGX
Perigee: 833.0 km
Apogee: 917.1 km
Inclination: 99.0 °
Period: 102.3 minutes
Semi major axis: 7246 km
RCS: 0.0027 m2 (small)
Launch date: May 10, 1999
Source: People's Republic of China (PRC)
Launch site: Taiyaun Space Center, China (TSC)

Note: This is SATELLITE DEBRIS
Your satellite tracking list
Your tracking list is empty




NASA's NSSDC Master Catalog

Two Line Element Set (TLE):
1 33710U 99025DGX 24101.01556958  .00001648  00000-0  98891-3 0  9993
2 33710  98.9737 195.3530 0058050  67.7448 292.9864 14.07510926590378
Source of the keplerian elements: AFSPC